Location: ??????????
(41.2581°N, 22.8006°E)
Time: 00:22:06
(UTC+00:00)

GEOS 3 Rocket - Pass Details

Date: 20 March 2026
Orbit: 767 x 846 km, 115.0° (Epoch: 13 April)

Event Time Altitude Azimuth Distance (km) Brightness Sun altitude
Rises 02:41:26 0° 40° (NE) 3,412 7.8 -21.3°
Reaches altitude 10° 02:43:50 10° 45° (NE) 2,471 7.0 -20.9°
Maximum altitude 02:49:06 54° 122° (ESE) 1,018 4.3 -20.0°
Enters shadow 02:53:32 14° 196° (SSW) 2,144 5.5 -19.2°
